Time,TemperatureF,DewpointF,PressureIn,WindDirection,WindDirectionDegrees,WindSpeedMPH,WindSpeedGustMPH,Humidity,HourlyPrecipIn,Conditions,Clouds,dailyrainin,SolarRadiationWatts/m^2,SoftwareType,DateUTC
2013-05-06 00:02:00,57.0,27.0,-100.00,ENE,76,6.0,18.0,31,0.00,,,0.00,1.000000,,2013-05-06 06:02:00,
2013-05-06 00:12:00,57.0,27.0,-100.00,ENE,76,6.0,18.0,31,0.00,,,0.00,1.000000,,2013-05-06 06:12:00,
2013-05-06 00:42:00,56.0,29.0,-100.00,East,100,7.0,12.0,35,0.00,,,0.00,1.000000,,2013-05-06 06:42:00,
2013-05-06 00:52:00,56.0,29.0,-100.00,East,100,7.0,12.0,35,0.00,,,0.00,1.000000,,2013-05-06 06:52:00,
2013-05-06 01:01:00,56.0,29.0,-100.00,East,100,7.0,12.0,35,0.00,,,0.00,1.000000,,2013-05-06 07:01:00,
2013-05-06 01:11:00,56.0,29.0,-100.00,East,100,7.0,12.0,35,0.00,,,0.00,1.000000,,2013-05-06 07:11:00,
2013-05-06 01:42:00,54.0,31.0,-100.00,ESE,121,12.0,19.0,42,0.00,,,0.00,1.000000,,2013-05-06 07:42:00,
2013-05-06 01:52:00,54.0,31.0,-100.00,ESE,121,12.0,19.0,42,0.00,,,0.00,1.000000,,2013-05-06 07:52:00,
2013-05-06 02:01:00,54.0,31.0,-100.00,ESE,121,12.0,19.0,42,0.00,,,0.00,1.000000,,2013-05-06 08:01:00,
2013-05-06 02:12:00,54.0,31.0,-100.00,ESE,121,12.0,19.0,42,0.00,,,0.00,1.000000,,2013-05-06 08:12:00,
2013-05-06 02:42:00,51.0,31.0,-100.00,East,98,9.0,18.0,46,0.00,,,0.00,1.000000,,2013-05-06 08:42:00,
2013-05-06 02:52:00,51.0,31.0,-100.00,East,98,9.0,18.0,46,0.00,,,0.00,1.000000,,2013-05-06 08:52:00,
2013-05-06 03:01:00,51.0,31.0,-100.00,East,98,9.0,18.0,46,0.00,,,0.00,1.000000,,2013-05-06 09:01:00,
2013-05-06 03:11:00,51.0,31.0,-100.00,East,98,9.0,18.0,46,0.00,,,0.00,1.000000,,2013-05-06 09:11:00,
2013-05-06 03:43:00,50.0,32.0,-100.00,East,82,9.0,14.0,49,0.00,,,0.00,1.000000,,2013-05-06 09:43:00,
2013-05-06 03:53:00,50.0,32.0,-100.00,East,82,9.0,14.0,49,0.00,,,0.00,1.000000,,2013-05-06 09:53:00,
2013-05-06 04:02:00,50.0,32.0,-100.00,East,82,9.0,14.0,49,0.00,,,0.00,1.000000,,2013-05-06 10:02:00,
2013-05-06 04:12:00,50.0,32.0,-100.00,East,82,9.0,14.0,49,0.00,,,0.00,1.000000,,2013-05-06 10:12:00,
2013-05-06 04:42:00,51.0,29.0,-100.00,SE,132,9.0,14.0,43,0.00,,,0.00,1.000000,,2013-05-06 10:42:00,
2013-05-06 04:52:00,51.0,29.0,-100.00,SE,132,9.0,14.0,43,0.00,,,0.00,1.000000,,2013-05-06 10:52:00,
2013-05-06 05:02:00,51.0,29.0,-100.00,SE,132,9.0,14.0,43,0.00,,,0.00,1.000000,,2013-05-06 11:02:00,
2013-05-06 05:11:00,51.0,29.0,-100.00,SE,132,9.0,14.0,43,0.00,,,0.00,1.000000,,2013-05-06 11:11:00,
2013-05-06 05:32:00,49.0,32.0,-100.00,ENE,72,10.0,15.0,51,0.00,,,-99.99,1.000000,,2013-05-06 11:32:00,
2013-05-06 05:42:00,49.0,32.0,-100.00,ENE,72,10.0,15.0,51,0.00,,,-99.99,1.000000,,2013-05-06 11:42:00,
2013-05-06 05:52:00,49.0,32.0,-100.00,ENE,72,10.0,15.0,51,0.00,,,-99.99,1.000000,,2013-05-06 11:52:00,
2013-05-06 06:01:00,49.0,32.0,-100.00,ENE,72,10.0,15.0,51,0.00,,,-99.99,1.000000,,2013-05-06 12:01:00,
2013-05-06 06:12:00,49.0,32.0,-100.00,ENE,72,10.0,15.0,51,0.00,,,-99.99,1.000000,,2013-05-06 12:12:00,
2013-05-06 06:42:00,49.0,33.0,-100.00,ENE,72,8.0,17.0,53,0.00,,,0.00,1.000000,,2013-05-06 12:42:00,
2013-05-06 06:52:00,49.0,33.0,-100.00,ENE,72,8.0,17.0,53,0.00,,,0.00,1.000000,,2013-05-06 12:52:00,
2013-05-06 07:01:00,49.0,33.0,-100.00,ENE,72,8.0,17.0,53,0.00,,,0.00,1.000000,,2013-05-06 13:01:00,
2013-05-06 07:11:00,49.0,33.0,-100.00,ENE,72,8.0,17.0,53,0.00,,,0.00,1.000000,,2013-05-06 13:11:00,
2013-05-06 07:42:00,47.0,31.0,-100.00,SW,236,8.0,16.0,54,0.00,,,0.00,9.000000,,2013-05-06 13:42:00,
2013-05-06 07:52:00,47.0,31.0,-100.00,SW,236,8.0,16.0,54,0.00,,,0.00,9.000000,,2013-05-06 13:52:00,
2013-05-06 08:01:00,47.0,31.0,-100.00,SW,236,8.0,16.0,54,0.00,,,0.00,9.000000,,2013-05-06 14:01:00,
2013-05-06 08:11:00,47.0,31.0,-100.00,SW,236,8.0,16.0,54,0.00,,,0.00,9.000000,,2013-05-06 14:11:00,
2013-05-06 08:42:00,50.0,32.0,-100.00,North,7,2.0,9.0,50,0.00,,,0.00,104.000000,,2013-05-06 14:42:00,
2013-05-06 08:52:00,50.0,32.0,-100.00,North,7,2.0,9.0,50,0.00,,,0.00,104.000000,,2013-05-06 14:52:00,
2013-05-06 09:01:00,50.0,32.0,-100.00,North,7,2.0,9.0,50,0.00,,,0.00,104.000000,,2013-05-06 15:01:00,
2013-05-06 09:11:00,50.0,32.0,-100.00,North,7,2.0,9.0,50,0.00,,,0.00,104.000000,,2013-05-06 15:11:00,
2013-05-06 09:43:00,51.0,31.0,-100.00,NNW,332,8.0,17.0,47,0.00,,,-99.99,189.000000,,2013-05-06 15:43:00,
2013-05-06 09:53:00,51.0,31.0,-100.00,NNW,332,8.0,17.0,47,0.00,,,-99.99,189.000000,,2013-05-06 15:53:00,
2013-05-06 10:03:00,51.0,31.0,-100.00,NNW,332,8.0,17.0,47,0.00,,,-99.99,189.000000,,2013-05-06 16:03:00,
2013-05-06 10:13:00,51.0,31.0,-100.00,NNW,332,8.0,17.0,47,0.00,,,-99.99,189.000000,,2013-05-06 16:13:00,
2013-05-06 10:42:00,52.0,30.0,-100.00,WSW,254,6.0,12.0,42,0.00,,,0.00,225.000000,,2013-05-06 16:42:00,
2013-05-06 10:52:00,52.0,30.0,-100.00,WSW,254,6.0,12.0,42,0.00,,,0.00,225.000000,,2013-05-06 16:52:00,
2013-05-06 11:02:00,52.0,30.0,-100.00,WSW,254,6.0,12.0,42,0.00,,,0.00,225.000000,,2013-05-06 17:02:00,
2013-05-06 11:12:00,52.0,30.0,-100.00,WSW,254,6.0,12.0,42,0.00,,,0.00,225.000000,,2013-05-06 17:12:00,
2013-05-06 11:42:00,48.0,41.0,-100.00,SW,220,9.0,16.0,76,0.00,,,0.00,257.000000,,2013-05-06 17:42:00,
2013-05-06 11:52:00,48.0,41.0,-100.00,SW,220,9.0,16.0,76,0.00,,,0.00,257.000000,,2013-05-06 17:52:00,
2013-05-06 12:01:00,48.0,41.0,-100.00,SW,220,9.0,16.0,76,0.00,,,0.00,257.000000,,2013-05-06 18:01:00,
2013-05-06 12:11:00,48.0,41.0,-100.00,SW,220,9.0,16.0,76,0.00,,,0.00,257.000000,,2013-05-06 18:11:00,
2013-05-06 12:43:00,48.0,40.0,-100.00,South,186,9.0,16.0,75,0.00,,,0.00,313.000000,,2013-05-06 18:43:00,
2013-05-06 12:52:00,48.0,40.0,-100.00,South,186,9.0,16.0,75,0.00,,,0.00,313.000000,,2013-05-06 18:52:00,
2013-05-06 13:01:00,48.0,40.0,-100.00,South,186,9.0,16.0,75,0.00,,,0.00,313.000000,,2013-05-06 19:01:00,
2013-05-06 13:11:00,48.0,40.0,-100.00,South,186,9.0,16.0,75,0.00,,,0.00,313.000000,,2013-05-06 19:11:00,
2013-05-06 13:42:00,49.0,40.0,-100.00,SSW,192,8.0,14.0,71,0.00,,,0.00,261.000000,,2013-05-06 19:42:00,
2013-05-06 13:52:00,49.0,40.0,-100.00,SSW,192,8.0,14.0,71,0.00,,,0.00,261.000000,,2013-05-06 19:52:00,
2013-05-06 14:01:00,49.0,40.0,-100.00,SSW,192,8.0,14.0,71,0.00,,,0.00,261.000000,,2013-05-06 20:01:00,
2013-05-06 14:11:00,49.0,40.0,-100.00,SSW,192,8.0,14.0,71,0.00,,,0.00,261.000000,,2013-05-06 20:11:00,
2013-05-06 14:42:00,52.0,43.0,-100.00,West,272,6.0,12.0,71,0.00,,,0.00,416.000000,,2013-05-06 20:42:00,
2013-05-06 14:52:00,52.0,43.0,-100.00,West,272,6.0,12.0,71,0.00,,,0.00,416.000000,,2013-05-06 20:52:00,
2013-05-06 15:01:00,52.0,43.0,-100.00,West,272,6.0,12.0,71,0.00,,,0.00,416.000000,,2013-05-06 21:01:00,
2013-05-06 15:11:00,52.0,43.0,-100.00,West,272,6.0,12.0,71,0.00,,,0.00,416.000000,,2013-05-06 21:11:00,
2013-05-06 15:43:00,53.0,41.0,-100.00,WNW,288,7.0,16.0,64,0.00,,,0.00,524.000000,,2013-05-06 21:43:00,
2013-05-06 15:53:00,53.0,41.0,-100.00,WNW,288,7.0,16.0,64,0.00,,,0.00,524.000000,,2013-05-06 21:53:00,
2013-05-06 16:03:00,53.0,41.0,-100.00,WNW,288,7.0,16.0,64,0.00,,,0.00,524.000000,,2013-05-06 22:03:00,
2013-05-06 16:12:00,53.0,41.0,-100.00,WNW,288,7.0,16.0,64,0.00,,,0.00,524.000000,,2013-05-06 22:12:00,
2013-05-06 16:45:00,58.0,36.0,-100.00,West,278,8.0,14.0,44,0.00,,,0.00,978.000000,,2013-05-06 22:45:00,
2013-05-06 16:52:00,58.0,36.0,-100.00,West,278,8.0,14.0,44,0.00,,,0.00,978.000000,,2013-05-06 22:52:00,
2013-05-06 17:02:00,58.0,36.0,-100.00,West,278,8.0,14.0,44,0.00,,,0.00,978.000000,,2013-05-06 23:02:00,
2013-05-06 17:11:00,58.0,36.0,-100.00,West,278,8.0,14.0,44,0.00,,,0.00,978.000000,,2013-05-06 23:11:00,
2013-05-06 17:42:00,58.0,33.0,-100.00,West,276,5.0,15.0,39,0.00,,,0.00,784.000000,,2013-05-06 23:42:00,
2013-05-06 17:52:00,58.0,33.0,-100.00,West,276,5.0,15.0,39,0.00,,,0.00,784.000000,,2013-05-06 23:52:00,
2013-05-06 18:01:00,58.0,33.0,-100.00,West,276,5.0,15.0,39,0.00,,,0.00,784.000000,,2013-05-07 00:01:00,
2013-05-06 18:11:00,58.0,33.0,-100.00,West,276,5.0,15.0,39,0.00,,,0.00,784.000000,,2013-05-07 00:11:00,
2013-05-06 18:42:00,57.0,32.0,-100.00,West,281,5.0,15.0,38,0.00,,,0.00,508.000000,,2013-05-07 00:42:00,
2013-05-06 18:52:00,57.0,32.0,-100.00,West,281,5.0,15.0,38,0.00,,,0.00,508.000000,,2013-05-07 00:52:00,
2013-05-06 19:01:00,57.0,32.0,-100.00,West,281,5.0,15.0,38,0.00,,,0.00,508.000000,,2013-05-07 01:01:00,
2013-05-06 19:11:00,57.0,32.0,-100.00,West,281,5.0,15.0,38,0.00,,,0.00,508.000000,,2013-05-07 01:11:00,
2013-05-06 19:42:00,53.0,33.0,-100.00,South,172,7.0,15.0,47,0.00,,,0.00,191.000000,,2013-05-07 01:42:00,
2013-05-06 19:53:00,53.0,33.0,-100.00,South,172,7.0,15.0,47,0.00,,,0.00,191.000000,,2013-05-07 01:53:00,
2013-05-06 20:02:00,53.0,33.0,-100.00,South,172,7.0,15.0,47,0.00,,,0.00,191.000000,,2013-05-07 02:02:00,
2013-05-06 20:11:00,53.0,33.0,-100.00,South,172,7.0,15.0,47,0.00,,,0.00,191.000000,,2013-05-07 02:11:00,
2013-05-06 20:32:00,51.0,35.0,-100.00,ENE,74,3.0,8.0,54,0.00,,,0.00,14.000000,,2013-05-07 02:32:00,
2013-05-06 20:42:00,51.0,35.0,-100.00,ENE,74,3.0,8.0,54,0.00,,,0.00,14.000000,,2013-05-07 02:42:00,
2013-05-06 20:52:00,51.0,35.0,-100.00,ENE,74,3.0,8.0,54,0.00,,,0.00,14.000000,,2013-05-07 02:52:00,
2013-05-06 21:01:00,51.0,35.0,-100.00,ENE,74,3.0,8.0,54,0.00,,,0.00,14.000000,,2013-05-07 03:01:00,
2013-05-06 21:11:00,51.0,35.0,-100.00,ENE,74,3.0,8.0,54,0.00,,,0.00,14.000000,,2013-05-07 03:11:00,
2013-05-06 21:43:00,49.0,36.0,-100.00,NNE,31,5.0,14.0,60,0.00,,,0.00,1.000000,,2013-05-07 03:43:00,
2013-05-06 21:53:00,49.0,36.0,-100.00,NNE,31,5.0,14.0,60,0.00,,,0.00,1.000000,,2013-05-07 03:53:00,
2013-05-06 22:02:00,49.0,36.0,-100.00,NNE,31,5.0,14.0,60,0.00,,,0.00,1.000000,,2013-05-07 04:02:00,
2013-05-06 22:12:00,49.0,36.0,-100.00,NNE,31,5.0,14.0,60,0.00,,,0.00,1.000000,,2013-05-07 04:12:00,
2013-05-06 22:42:00,48.0,36.0,-100.00,ENE,78,4.0,6.0,62,0.00,,,0.00,1.000000,,2013-05-07 04:42:00,
2013-05-06 22:53:00,48.0,36.0,-100.00,ENE,78,4.0,6.0,62,0.00,,,0.00,1.000000,,2013-05-07 04:53:00,
2013-05-06 23:02:00,48.0,36.0,-100.00,ENE,78,4.0,6.0,62,0.00,,,0.00,1.000000,,2013-05-07 05:02:00,
2013-05-06 23:12:00,48.0,36.0,-100.00,ENE,78,4.0,6.0,62,0.00,,,0.00,1.000000,,2013-05-07 05:12:00,
2013-05-06 23:42:00,47.0,36.0,-100.00,East,98,4.0,15.0,66,0.00,,,0.00,1.000000,,2013-05-07 05:42:00,
2013-05-06 23:52:00,47.0,36.0,-100.00,East,98,4.0,15.0,66,0.00,,,0.00,1.000000,,2013-05-07 05:52:00,